User: anonymous   Login
Location: Bratsk-Energetik
(56.3300°N, 101.7600°E)
Time: 23:48:02
(UTC+08:00)
Language:

ISS - Orbit

View from above orbital plane
View from above orbital plane
View from above satellite
View from above satellite

Ground track
Ground track

The orbit data is extracted from the following two-line orbital elements,

1 25544U 98067A   21164.55461346  .00000902  00000-0  24549-4 0  9997
2 25544  51.6443   0.6922 0003517  90.1252   7.2560 15.48979832288036
Epoch (UTC): 13 June 2021 13:18:38
Eccentricity: 0.0003517
inclination: 51.6443°
perigee height: 417 km
apogee height: 422 km
right ascension of ascending node: 0.6922°
argument of perigee: 90.1252°
revolutions per day: 15.48979832
mean anomaly at epoch: 7.2560°
orbit number at epoch: 28803

The dashed part of the orbit path shows where the satellite is in the earth's shadow,  

DLR